INTELSAT 1R (PAS 1R)

Satellite information

Favourite Embed

Satellite Type and Status

PAYLOADIN ORBIT

Key statistics

Satellite INTELSAT 1R (PAS 1R) at a glance.

Uptime

9163

Days in orbit

Revolutions

≈ 1.0

Per day

Orbit

OTHER

Other

Inclination

7.6

Latest

Satellite identification and parameters

Extended collection of information and parameters for INTELSAT 1R (PAS 1R).

Object identification

Identified? True

Debris? False

Object name: INTELSAT 1R (PAS 1R)

International designator: 2000-072A

Object number (NORAD): 26608

Object ID (CCSDS): 26608

Country: UNITED STATES OF AMERICA (US)

Current information (Y/N): Y

RCS size: LARGE

Orbital parameters

Period: 1455.012 minutes

Inclination: 7.6241 deg

SMA: 42534.171 km

Apoapsis: 36195.091 km

Periapsis: 36116.981 km

RAAN: 66.7894 deg

Eccentricy: 0.0009182

Argument of periapsis: 240.3184 deg

Mean anomaly: 118.4145 deg

Mean motion: 0.98968229 rev/day

Mean motion (dot): -0.00000137 rev/day2

B* drag term: 0.0 1/REarth

Two-line elements (TLE)

Creation date: Dec. 17, 2025, 11:34 a.m.

Reference frame: TEME

Reference center: EARTH

Epoch: Dec. 17, 2025, 2:45 a.m. UTC

TLE line 0: 0 INTELSAT 1R (PAS 1R)

TLE line 1: 1 26608U 00072A 25351.11493993 -.00000137 00000-0 00000-0 0 9998

TLE line 2: 2 26608 7.6241 66.7894 0009182 240.3184 118.4145 0.98968229 39421

Live tracking on map

Real-time ground track for satellite INTELSAT 1R (PAS 1R).

In-orbit conjunctions

There are no conjunctions computed for INTELSAT 1R (PAS 1R), at the moment. Check back to stay up to date, as we update our databases every day.

Go to all conjunctions

Associated space launch

PAS-1R a commications satellite located at 40 degrees west, serving the Americas, the Caribbean, Europe and Africa, operated by PanAmSat. Amsat P3D was an amateur radio satellite built and operated by AmSat. STRV was a series of four satellites operated by the UK MoD, intended to test new technologies, two were launched on this vehicle.

INTELSAT 1R (PAS 1R) was lifted into orbit during the mission ‘Ariane 5 G | PAS-1R, Amsat P3D, STRV 1C, STRV 1D’, on board a Ariane 5 G space rocket.

The launch took place on Nov. 16, 2000, 1:07 a.m. from Ariane Launch Area 3.

For more information about the launch, click the button.

Launch to space Ariane 5 G | PAS-1R, Amsat P3D, STRV 1C, STRV 1D
Ariane 5 G | PAS-1R, Amsat P3D, STRV 1C, STRV 1D

Agency: N/A

Status: Launch Successful

Launch date: Nov. 16, 2000, 1:07 a.m. UTC

Rocket: Ariane 5 G

Launch pad: Ariane Launch Area 3

Location: Guiana Space Centre, French Guiana

...

Latest news about this satellite

There are no fresh news available about this satellite. Check back as we update our databases every day.


Newsletter sign-up

Weekly statistics, charts and insights to help you stay on top of the space industry.